Montague Island Observation History
Time Wind Speed Temp Pressure Rel. Hum Rain
04/08:30am W 13-16 kts 12.2°c 1032.7 hPa 61% 0.0mm
04/08:00am W 12-17 kts 11.4°c 1032.5 hPa 64% 0.0mm
04/07:30am WSW 18-22 kts 11.5°c 1032.1 hPa 59% 0.0mm
04/07:00am WSW 18-23 kts 11.4°c 1031.9 hPa 62% 0.0mm
04/06:30am WSW 17-22 kts 11.3°c 1031.7 hPa 63% 0.0mm
04/06:00am WSW 18-21 kts 11.2°c 1031.4 hPa 63% 0.0mm
04/05:30am WSW 18-23 kts 11.3°c 1031.0 hPa 64% 0.0mm
04/05:00am WSW 20-23 kts 11.2°c 1030.7 hPa 63% 0.0mm
04/04:30am WSW 19-23 kts 11.3°c 1030.4 hPa 65% 0.0mm
04/04:00am WSW 19-24 kts 11.3°c 1030.5 hPa 66% 0.0mm
04/03:30am WSW 20-25 kts 11.4°c 1030.2 hPa 65% 0.0mm
04/03:00am SW 20-24 kts 11.1°c 1030.2 hPa 66% 0.0mm
04/02:30am WSW 19-23 kts 11.2°c 1030.3 hPa 67% 0.0mm
04/02:00am SW 18-24 kts 11.3°c 1030.3 hPa 67% 0.0mm
04/01:30am WSW 19-22 kts 11.3°c 1030.3 hPa 67% 0.0mm
04/01:14am SW 18-28 kts 11.5°c 1030.2 hPa 67% 0.0mm
04/01:00am SW 21-27 kts 11.9°c 1030.1 hPa 67% 0.0mm
04/12:30am SW 18-26 kts 11.6°c 1030.1 hPa 67% 0.0mm
04/12:00am SW 18-23 kts 11.7°c 1030.1 hPa 68% 0.0mm
Time Wind Speed Temp Pressure Rel. Hum Rain
03/11:30pm SW 21-26 kts 12.0°c 1030.3 hPa 66% 0.0mm
03/11:00pm SW 20-26 kts 12.2°c 1030.1 hPa 68% 0.0mm
03/10:30pm SW 21-26 kts 12.1°c 1030.0 hPa 69% 0.0mm
03/10:00pm WSW 18-22 kts 11.8°c 1030.1 hPa 69% 0.0mm
03/09:30pm SW 19-23 kts 12.2°c 1030.0 hPa 70% 0.0mm
03/09:00pm SW 20-25 kts 12.4°c 1029.8 hPa 69% 0.0mm
03/08:30pm SW 20-27 kts 12.6°c 1029.5 hPa 70% 0.0mm
03/08:00pm SW 22-28 kts 12.6°c 1029.2 hPa 69% 0.0mm
03/07:30pm SSW 24-34 kts 12.7°c 1028.8 hPa 68% 0.0mm
03/07:00pm SW 26-35 kts 12.8°c 1028.3 hPa 66% 0.0mm
03/06:50pm SW 27-38 kts 13.1°c 1027.9 hPa 67% 0.0mm
03/06:30pm SSW 24-32 kts 13.1°c 1027.7 hPa 63% 0.0mm
03/06:00pm SSW 27-35 kts 13.1°c 1027.2 hPa 62% 0.0mm
03/05:36pm SSW 29-40 kts 13.4°c 1026.8 hPa 65% 0.0mm
03/05:30pm SSW 32-40 kts 13.5°c 1026.4 hPa 59% 0.0mm
03/05:01pm SSW 26-37 kts 13.5°c 1026.2 hPa 61% 0.0mm
03/05:00pm SSW 25-33 kts 13.5°c 1026.3 hPa 61% 0.0mm
03/04:30pm SSW 32-43 kts 13.4°c 1025.7 hPa 62% 0.0mm
03/04:13pm SSW 30-43 kts 13.5°c 1025.5 hPa 66% 0.0mm
03/04:00pm SSW 25-35 kts 13.7°c 1025.4 hPa 70% 0.0mm
03/03:33pm SSW 25-36 kts 13.8°c 1024.9 hPa 76% 0.0mm
03/03:30pm SSW 24-31 kts 13.6°c 1024.9 hPa 76% 0.0mm
03/03:02pm S 25-35 kts 13.4°c 1024.4 hPa 74% 0.0mm
03/03:00pm SSW 24-35 kts 13.6°c 1024.4 hPa 73% 0.0mm
03/02:52pm SW 22-32 kts 14.7°c 1024.3 hPa 52% 0.0mm
03/02:30pm SW 26-33 kts 15.6°c 1023.8 hPa 50% 0.0mm
03/02:00pm SW 27-34 kts 16.0°c 1023.4 hPa 46% 0.0mm
03/01:30pm SW 24-32 kts 15.9°c 1023.2 hPa 49% 0.0mm
03/01:16pm SW 24-36 kts 15.8°c 1023.0 hPa 50% 0.0mm
03/01:00pm SW 27-34 kts 15.3°c 1022.9 hPa 52% 0.0mm
03/12:51pm SW 23-34 kts 15.2°c 1022.9 hPa 52% 0.0mm
03/12:30pm SW 20-26 kts 15.2°c 1022.9 hPa 53% 0.0mm
03/12:00pm SSW 22-31 kts 14.7°c 1022.8 hPa 59% 0.0mm
03/11:59am SSW 21-31 kts 14.6°c 1022.8 hPa 58% 0.0mm
03/11:30am SSW 25-33 kts 14.9°c 1022.6 hPa 57% 0.0mm
03/11:00am SW 22-31 kts 14.9°c 1022.6 hPa 55% 0.0mm
03/10:30am SW 20-29 kts 14.8°c 1022.3 hPa 51% 0.0mm
03/10:00am SW 20-25 kts 14.8°c 1022.2 hPa 52% 0.0mm
03/09:30am WSW 23-28 kts 14.3°c 1021.8 hPa 54% 0.0mm
03/09:00am WSW 22-27 kts 13.9°c 1021.5 hPa 55% 0.0mm
03/08:30am SW 23-29 kts 14.0°c 1021.0 hPa 56% 0.0mm
03/08:00am WSW 23-29 kts 13.6°c 1020.3 hPa 55% 0.0mm
03/07:30am SW 32-41 kts 13.6°c 1019.6 hPa 54% 0.0mm
03/07:00am SW 29-41 kts 13.9°c 1018.9 hPa 55% 0.0mm
03/06:30am SW 31-43 kts 14.1°c 1018.5 hPa 56% 0.0mm
03/06:18am SW 30-41 kts 14.2°c 1018.1 hPa 59% 0.0mm
03/06:00am SW 31-39 kts 14.2°c 1017.4 hPa 56% 0.0mm
03/05:30am SW 32-40 kts 14.6°c 1016.8 hPa 57% 0.0mm
03/05:09am SW 29-39 kts 14.7°c 1016.1 hPa 56% 0.0mm
03/05:01am SSW 21-33 kts 15.1°c 1016.3 hPa 56% 0.0mm
03/05:00am SSW 20-27 kts 15.2°c 1016.4 hPa 57% 0.0mm
03/04:55am SW 16-24 kts 15.2°c 1016.2 hPa 56% 0.0mm
03/04:30am WSW 7-15 kts 13.6°c 1015.9 hPa 56% 0.0mm
03/04:00am W 14-18 kts 14.0°c 1015.2 hPa 52% 0.0mm
03/03:30am W 10-13 kts 12.9°c 1014.9 hPa 56% 0.0mm
03/03:00am WNW 13-18 kts 13.0°c 1014.8 hPa 55% 0.0mm
03/02:30am WNW 15-18 kts 13.6°c 1015.0 hPa 54% 0.0mm
03/02:00am WNW 14-20 kts 13.6°c 1015.3 hPa 58% 0.0mm
03/01:30am WNW 13-17 kts 13.2°c 1015.3 hPa 57% 0.0mm
03/01:00am WNW 14-18 kts 13.0°c 1015.0 hPa 58% 0.0mm
03/12:30am WNW 16-20 kts 13.0°c 1014.9 hPa 56% 0.0mm
03/12:00am WNW 13-17 kts 12.7°c 1015.1 hPa 60% 0.0mm
Time Wind Speed Temp Pressure Rel. Hum Rain
02/11:30pm W 14-17 kts 12.6°c 1015.3 hPa 59% 0.0mm
02/11:00pm W 13-16 kts 12.8°c 1015.2 hPa 58% 0.0mm
02/10:30pm W 16-19 kts 12.9°c 1014.8 hPa 61% 0.0mm
02/10:00pm WNW 13-15 kts 13.5°c 1015.0 hPa 56% 0.0mm
02/09:30pm NW 6-9 kts 13.6°c 1015.4 hPa 66% 0.0mm
02/09:00pm NW 7-10 kts 13.7°c 1015.6 hPa 68% 0.0mm
02/08:30pm WNW 9-12 kts 13.9°c 1015.4 hPa 68% 0.0mm
02/08:00pm NW 8-12 kts 14.1°c 1015.1 hPa 67% 0.0mm
02/07:30pm WNW 7-11 kts 14.3°c 1014.7 hPa 64% 0.0mm
02/07:00pm WSW 7-8 kts 14.3°c 1014.7 hPa 65% 0.0mm
02/06:30pm SW 8-10 kts 14.9°c 1014.6 hPa 60% 0.0mm
02/06:00pm SSW 11-13 kts 15.2°c 1014.5 hPa 57% 0.0mm
02/05:30pm SSW 13-16 kts 15.2°c 1014.6 hPa 58% 0.0mm
02/05:00pm SSW 14-17 kts 15.2°c 1014.2 hPa 55% 0.0mm
02/04:30pm SSW 13-17 kts 15.3°c 1014.1 hPa 56% 0.0mm
02/04:00pm SSW 12-15 kts 15.5°c 1013.9 hPa 51% 0.0mm
02/03:30pm SSW 10-13 kts 15.8°c 1013.6 hPa 46% 0.0mm
02/03:00pm SSW 11-14 kts 16.1°c 1013.7 hPa 48% 0.0mm
02/02:30pm SSW 14-16 kts 16.0°c 1013.5 hPa 43% 0.0mm
02/02:00pm SSW 11-14 kts 16.1°c 1013.6 hPa 47% 0.0mm
02/01:30pm SSW 12-15 kts 15.9°c 1013.5 hPa 48% 0.0mm
02/01:00pm SSW 13-16 kts 15.6°c 1013.6 hPa 47% 0.0mm
02/12:30pm SSW 15-20 kts 15.4°c 1013.7 hPa 51% 0.0mm
02/12:00pm SW 17-21 kts 14.8°c 1014.0 hPa 49% 0.0mm
02/11:30am SW 17-24 kts 14.4°c 1014.2 hPa 51% 0.0mm
02/11:00am SW 16-22 kts 14.2°c 1014.3 hPa 53% 0.0mm
02/10:30am SW 20-25 kts 14.0°c 1014.4 hPa 50% 0.0mm
02/10:00am SW 23-29 kts 13.8°c 1014.1 hPa 54% 0.0mm
02/09:30am SW 23-32 kts 13.5°c 1014.0 hPa 54% 0.0mm
02/09:29am SW 22-32 kts 13.5°c 1014.0 hPa 56% 0.0mm
02/09:00am SW 22-28 kts 12.9°c 1014.0 hPa 56% 0.0mm
02/08:30am SW 23-29 kts 12.6°c 1013.6 hPa 60% 0.0mm
02/08:00am SW 22-29 kts 12.5°c 1013.4 hPa 60% 0.0mm
02/07:30am SW 21-29 kts 12.4°c 1013.1 hPa 62% 0.0mm
02/07:00am SW 22-28 kts 12.6°c 1012.8 hPa 63% 0.0mm
02/06:38am SW 18-28 kts 12.7°c 1012.5 hPa 65% 0.0mm
02/06:30am SW 20-26 kts 12.7°c 1012.5 hPa 63% 0.0mm
02/06:00am SW 20-26 kts 12.8°c 1012.0 hPa 66% 0.0mm
02/05:30am SW 21-27 kts 12.8°c 1011.6 hPa 64% 0.0mm
02/05:04am SW 19-29 kts 12.8°c 1011.2 hPa 63% 0.0mm
02/05:00am SW 19-25 kts 12.9°c 1011.2 hPa 63% 0.0mm
02/04:30am SW 21-29 kts 12.9°c 1010.6 hPa 60% 0.0mm
02/04:00am SW 19-26 kts 13.2°c 1010.4 hPa 57% 0.0mm
02/03:30am SW 18-21 kts 13.1°c 1010.5 hPa 54% 0.0mm
02/03:00am SW 16-21 kts 13.2°c 1010.2 hPa 52% 0.0mm
02/02:30am SW 14-17 kts 13.0°c 1010.0 hPa 53% 0.0mm
02/02:00am WSW 15-18 kts 13.1°c 1009.9 hPa 56% 0.0mm
02/01:30am SW 17-20 kts 13.0°c 1009.8 hPa 58% 0.0mm
02/01:00am SW 17-22 kts 13.5°c 1009.8 hPa 57% 0.0mm
02/12:30am SW 16-20 kts 13.6°c 1009.7 hPa 56% 0.0mm
02/12:00am SW 14-17 kts 13.5°c 1009.8 hPa 54% 0.0mm